Weather History for Shannon, Ireland

Change the Weather History Date:

Sunday, September 30, 2012

  Actual Average Record
Temperature  
Mean Temperature 57 °F -  
Max Temperature 61 °F 58 °F 71 °F (1997)
Min Temperature 53 °F 46 °F 48 °F (2000)
Degree Days  
Heating Degree Days 8    
Growing Degree Days 7 (Base 50)    
Moisture  
Dew Point 54 °F    
Average Humidity 87    
Maximum Humidity 100    
Minimum Humidity 68    
Precipitation  
Precipitation 0.16 in 0.12 in - ()
Sea Level Pressure  
Sea Level Pressure 29.84 in    
Wind  
Wind Speed 15 mph ()    
Max Wind Speed 24 mph    
Max Gust Speed -    
Visibility 6.1 miles    
Events Rain    
Averages and records for this station are not official NWS values.
T = Trace of Precipitation, MM = Missing Value Source: Averaged Metar Reports

Daily Weather History Graph

Daily Weather History Graph

Search for Another Location

Airport:

Trip Planner

Search our weather history database for the weather conditions in past years. The results will help you decide how hot, cold, wet, or windy it might be!

Date:

Astronomy

Sep. 30, 2012 Rise Set
Actual Time 7:35 AM IST 7:14 PM IST
Civil Twilight 7:01 AM IST 7:48 PM IST
Nautical Twilight 6:21 AM IST 8:28 PM IST
Astronomical Twilight 5:40 AM IST 9:09 PM IST
Moon 6:58 PM IST (9/30) 8:02 AM IST (9/30)
Length of Visible Light 12h 46m
Length of Day
11h 38m
Full, 100% of the Moon is Illuminated
Sep 30
Full
Oct 8
Last Quarter
Oct 15
New
Oct 22
First Quarter
Oct 29
Full

Hourly Weather History & Observations

Time (IST) Temp. Dew Point Humidity Pressure Visibility Wind Dir Wind Speed Gust Speed Precip Events Conditions
12:00 AM 57.2 °F 51.8 °F 82% 29.95 in 6.2 mi SSW 17.3 mph - N/A   Overcast
12:30 AM 57.2 °F 53.6 °F 88% 29.95 in 6.2 mi SSW 19.6 mph - N/A   Overcast
1:00 AM 57 °F 53 °F 84% 29.96 in 16 mi SSW 17.9 mph - - Rain Light Rain
1:00 AM 57.2 °F 53.6 °F 88% 29.95 in 6.2 mi SSW 18.4 mph - N/A   Overcast
1:30 AM 57.2 °F 53.6 °F 88% 29.95 in 6.2 mi SSW 18.4 mph - N/A Rain Light Rain
2:00 AM 57.2 °F 55.4 °F 94% 29.92 in 6.2 mi SW 17.3 mph - N/A   Overcast
2:30 AM 59.0 °F 55.4 °F 88% 29.92 in 6.2 mi SSW 17.3 mph - N/A   Overcast
3:00 AM 59.0 °F 55.4 °F 88% 29.89 in 6.2 mi SSW 18.4 mph - N/A Rain Light Rain
3:30 AM 59.0 °F 55.4 °F 88% 29.89 in 6.2 mi SSW 17.3 mph - N/A   Overcast
4:00 AM 59.0 °F 55.4 °F 88% 29.89 in 6.2 mi SSW 16.1 mph - N/A   Mostly Cloudy
4:30 AM 59.0 °F 57.2 °F 94% 29.86 in 6.2 mi SSW 15.0 mph - N/A   Light Drizzle
5:00 AM 59.0 °F 57.2 °F 94% 29.86 in 6.2 mi SW 21.9 mph - N/A   Light Drizzle
5:30 AM 59.0 °F 55.4 °F 88% 29.86 in 6.2 mi SW 18.4 mph - N/A   Mostly Cloudy
6:00 AM 59.0 °F 55.4 °F 88% 29.83 in 6.2 mi SSW 12.7 mph - N/A   Mostly Cloudy
6:30 AM 59.0 °F 55.4 °F 88% 29.80 in 3.7 mi SSW 19.6 mph - N/A   Light Drizzle
7:00 AM 59 °F 57 °F 90% 29.82 in 4 mi SSW 13.4 mph - - Rain Light Drizzle
7:00 AM 59.0 °F 57.2 °F 94% 29.80 in 4.3 mi SSW 13.8 mph - N/A   Light Drizzle
7:30 AM 59.0 °F 57.2 °F 94% 29.80 in 4.3 mi SSW 16.1 mph - N/A Rain Light Rain
8:00 AM 59.0 °F 57.2 °F 94% 29.80 in 1.9 mi SSW 16.1 mph - N/A Rain Rain
8:30 AM 59.0 °F 59.0 °F 100% 29.80 in 2.5 mi SSW 13.8 mph - N/A Rain Light Rain
9:00 AM 59.0 °F 59.0 °F 100% 29.80 in 1.6 mi SW 17.3 mph - N/A Rain Light Rain
9:30 AM 55.4 °F 53.6 °F 94% 29.83 in 1.9 mi West 12.7 mph - N/A Rain Light Rain
10:00 AM 55.4 °F 55.4 °F 100% 29.83 in 5.6 mi West 9.2 mph - N/A   Light Drizzle
10:30 AM 55.4 °F 55.4 °F 100% 29.83 in 6.2 mi SW 11.5 mph - N/A   Light Drizzle
11:00 AM 57.2 °F 55.4 °F 94% 29.83 in 6.2 mi WSW 15.0 mph - N/A   Mostly Cloudy
11:30 AM 57.2 °F 55.4 °F 94% 29.86 in 6.2 mi WSW 17.3 mph - N/A   Mostly Cloudy
12:00 PM 57.2 °F 55.4 °F 94% 29.83 in 6.2 mi WSW 18.4 mph - N/A   Mostly Cloudy
12:30 PM 59.0 °F 53.6 °F 82% 29.83 in 6.2 mi WSW 18.4 mph - N/A   Mostly Cloudy
1:00 PM 60 °F 53 °F 72% 29.85 in 10 mi WSW 17.9 mph - - Rain Light Rain Showers
1:00 PM 60.8 °F 53.6 °F 77% 29.83 in 6.2 mi WSW 18.4 mph - N/A   Mostly Cloudy
1:30 PM 57.2 °F 53.6 °F 88% 29.83 in 6.2 mi West 17.3 mph - N/A   Mostly Cloudy
2:00 PM 59.0 °F 53.6 °F 82% 29.83 in 6.2 mi WSW 16.1 mph - N/A   Mostly Cloudy
2:30 PM 60.8 °F 53.6 °F 77% 29.83 in 6.2 mi WSW 23.0 mph - N/A   Scattered Clouds
3:00 PM 59.0 °F 51.8 °F 77% 29.83 in 6.2 mi WSW 17.3 mph - N/A   Partly Cloudy
3:30 PM 60.8 °F 50.0 °F 68% 29.83 in 6.2 mi WSW 24.2 mph - N/A   Partly Cloudy
4:00 PM 60.8 °F 50.0 °F 68% 29.80 in 6.2 mi WSW 23.0 mph - N/A   Partly Cloudy
4:30 PM 59.0 °F 50.0 °F 72% 29.80 in 6.2 mi WSW 18.4 mph - N/A   Scattered Clouds
5:00 PM 59.0 °F 50.0 °F 72% 29.80 in 6.2 mi WSW 17.3 mph - N/A   Mostly Cloudy
5:30 PM 55.4 °F 50.0 °F 82% 29.83 in 6.2 mi West 19.6 mph - N/A Rain Light Rain Showers
6:00 PM 55.4 °F 51.8 °F 88% 29.80 in 6.2 mi SW 9.2 mph - N/A   Scattered Clouds
6:30 PM 55.4 °F 51.8 °F 88% 29.80 in 6.2 mi WSW 13.8 mph - N/A   Partly Cloudy
7:00 PM 56 °F 52 °F 83% 29.81 in 12 mi SW 13.4 mph - -   Partly Cloudy
7:00 PM 57.2 °F 51.8 °F 82% 29.80 in 6.2 mi SW 13.8 mph - N/A   Mostly Cloudy
7:30 PM 57.2 °F 51.8 °F 82% 29.80 in - North - - N/A   Mostly Cloudy
8:00 PM 57.2 °F 50.0 °F 77% 29.80 in 6.2 mi SW 15.0 mph - N/A   Scattered Clouds
8:30 PM 55.4 °F 50.0 °F 82% 29.80 in 6.2 mi SSW 9.2 mph - N/A   Scattered Clouds
9:00 PM 53.6 °F 50.0 °F 88% 29.80 in 6.2 mi South 8.1 mph - N/A   Scattered Clouds
9:30 PM 53.6 °F 51.8 °F 94% 29.80 in 6.2 mi SSW 9.2 mph - N/A   Mostly Cloudy
10:00 PM 55.4 °F 51.8 °F 88% 29.80 in 6.2 mi SW 16.1 mph - N/A   Mostly Cloudy
10:30 PM 55.4 °F 50.0 °F 82% 29.80 in 6.2 mi SW 18.4 mph - N/A   Mostly Cloudy
11:00 PM 53.6 °F 50.0 °F 88% 29.80 in 6.2 mi SW 17.3 mph - N/A   Scattered Clouds
11:30 PM 55.4 °F 51.8 °F 88% 29.80 in 6.2 mi WSW 18.4 mph - N/A   Mostly Cloudy